FW3330 Weather Reports


Display with metric or nautical units.
time (UTC)temp
F
wind
direction
speed
MPH
gust
MPH
rain 1hr
in
rain 24hr
in
rain mn
in
humidity
%
barometer
mb
20260509101329 62 122 0.0 0.0 0.00 0.00 0.00 100 1015.6
20260509100320 62 122 0.0 0.0 0.00 0.00 0.00 100 1015.7
20260509095334 62 122 0.0 0.0 0.00 0.00 0.00 100 1015.5
20260509094350 62 122 0.0 0.0 0.00 0.00 0.00 100 1015.8
20260509093320 62 122 0.0 0.0 0.00 0.00 0.00 100 1015.9
20260509092334 62 122 0.0 0.0 0.00 0.00 0.00 100 1015.8
20260509091351 62 122 0.0 0.0 0.00 0.00 0.00 100 1016.0
20260509090318 62 122 0.0 0.0 0.00 0.00 0.00 99 1016.1
20260509085331 62 122 0.0 0.0 0.00 0.00 0.00 99 1016.1
20260509084325 62 122 0.0 0.0 0.00 0.00 0.00 99 1016.0
20260509083342 62 122 0.0 0.0 0.00 0.00 0.00 99 1015.9
20260509082336 62 122 0.0 0.0 0.00 0.00 0.00 99 1015.8
20260509081343 62 122 0.0 0.0 0.00 0.00 0.00 99 1015.4
20260508235323 67 141 1.0 6.0 0.00 0.00 0.00 83 1018.1
20260508234336 67 110 4.0 6.0 0.00 0.00 0.00 82 1017.9
20260508233325 67 109 1.0 8.0 0.00 0.00 0.00 82 1017.8
20260508232340 68 129 2.0 5.0 0.00 0.00 0.00 82 1017.7
20260508231329 68 111 2.0 9.0 0.00 0.00 0.00 82 1017.7
20260508230341 68 135 3.0 8.0 0.00 0.00 0.00 82 1017.9
20260508225330 68 108 3.0 7.0 0.00 0.01 0.00 81 1018.1
20260508224344 69 116 1.0 8.0 0.00 0.01 0.00 82 1018.2
20260508223332 69 141 2.0 6.0 0.00 0.01 0.00 82 1017.4
20260508222318 69 143 4.0 8.0 0.00 0.01 0.00 81 1017.5
20260508221334 69 114 4.0 9.0 0.00 0.01 0.00 81 1017.3
20260508220324 70 135 3.0 9.0 0.00 0.01 0.00 81 1017.6
20260508215339 70 124 3.0 11.0 0.00 0.01 0.00 79 1017.6
20260508214326 70 144 3.0 9.0 0.00 0.01 0.00 79 1017.5
20260508213342 71 102 4.0 13.0 0.00 0.01 0.00 78 1017.5
20260508212331 72 117 6.0 13.0 0.00 0.01 0.00 78 1017.5
20260508211319 73 96 4.0 11.0 0.00 0.01 0.00 76 1017.7
20260508210334 73 104 5.0 10.0 0.00 0.01 0.00 75 1017.5
20260508205321 74 118 2.0 9.0 0.00 0.05 0.00 75 1017.5
20260508204354 74 119 3.0 7.0 0.00 0.05 0.00 69 1017.3
20260508203321 74 58 1.0 5.0 0.00 0.05 0.00 68 1017.2
20260508202337 75 108 1.0 4.0 0.00 0.05 0.00 66 1017.4
20260508201329 75 105 3.0 7.0 0.00 0.05 0.00 67 1017.2
20260508200400 75 60 1.0 5.0 0.00 0.05 0.00 68 1017.5
20260508195330 75 103 1.0 5.0 0.00 0.13 0.00 67 1017.7
20260508194317 75 58 1.0 5.0 0.00 0.13 0.00 69 1017.8
20260508193333 75 16 1.0 4.0 0.00 0.13 0.00 67 1018.1
20260508192317 74 106 3.0 5.0 0.00 0.13 0.00 65 1018.2
20260508191332 74 73 1.0 5.0 0.00 0.13 0.00 68 1018.2
20260508190349 74 42 1.0 5.0 0.00 0.13 0.00 67 1018.3
20260508185343 74 287 3.0 6.0 0.00 0.23 0.00 65 1018.6
20260508184331 75 113 2.0 8.0 0.00 0.23 0.00 65 1018.6
20260508183347 75 82 0.0 5.0 0.00 0.23 0.00 67 1018.8
20260508182339 74 139 2.0 5.0 0.00 0.23 0.00 67 1018.9
20260508181326 74 118 2.0 5.0 0.00 0.23 0.00 70 1018.9
20260508180339 73 52 2.0 5.0 0.00 0.23 0.00 69 1019.0
20260508175328 73 121 3.0 7.0 0.00 0.23 0.00 69 1019.4
20260508174343 73 127 1.0 6.0 0.00 0.23 0.00 68 1019.4
20260508173333 73 37 4.0 8.0 0.00 0.23 0.00 69 1019.6
20260508172321 73 52 2.0 5.0 0.00 0.23 0.00 67 1019.4
20260508171336 73 37 1.0 5.0 0.00 0.23 0.00 67 1019.6
20260508170326 73 51 3.0 7.0 0.00 0.23 0.00 72 1019.9
20260508165341 72 120 2.0 6.0 0.00 0.23 0.00 73 1019.9
20260508164328 71 62 1.0 9.0 0.00 0.23 0.00 70 1019.9
20260508163321 71 309 3.0 6.0 0.00 0.23 0.00 68 1020.1
20260508162334 71 101 6.0 10.0 0.00 0.23 0.00 68 1020.2
20260508161347 70 56 2.0 7.0 0.00 0.23 0.00 71 1020.4
20260508160342 70 115 4.0 9.0 0.00 0.23 0.00 71 1020.7
20260508155329 70 136 3.0 9.0 0.00 0.23 0.00 71 1020.9
20260508154404 70 104 0.0 8.0 0.00 0.23 0.00 73 1020.9
20260508153331 70 52 4.0 10.0 0.00 0.23 0.00 71 1020.9
20260508152319 69 16 2.0 9.0 0.00 0.23 0.00 72 1021.0
20260508151353 69 120 4.0 11.0 0.00 0.23 0.00 73 1020.9
20260508150322 70 28 2.0 9.0 0.00 0.23 0.00 74 1020.9
20260508145335 69 185 1.0 10.0 0.00 0.23 0.00 74 1020.9
20260508144327 68 317 4.0 10.0 0.00 0.23 0.00 76 1020.9
20260508143320 67 57 2.0 9.0 0.00 0.23 0.00 80 1020.7
20260508142335 67 310 2.0 8.0 0.00 0.23 0.00 79 1020.8
20260508141349 67 33 2.0 7.0 0.00 0.23 0.00 81 1020.7
20260508140343 66 44 3.0 6.0 0.00 0.23 0.00 82 1020.7
20260508135331 64 135 2.0 8.0 0.00 0.23 0.00 85 1020.7
20260508134344 64 87 1.0 9.0 0.00 0.23 0.00 87 1020.7
20260508133333 63 242 0.0 7.0 0.00 0.23 0.00 90 1020.4
20260508132345 62 98 0.0 7.0 0.00 0.23 0.00 92 1020.3
20260508131339 62 154 2.0 8.0 0.00 0.23 0.00 93 1020.2
20260508130326 61 131 3.0 7.0 0.00 0.23 0.00 95 1020.0
20260508125339 60 40 1.0 6.0 0.00 0.23 0.00 97 1020.1
20260508124329 60 60 1.0 7.0 0.00 0.23 0.00 99 1020.0
20260508123344 59 4 0.0 5.0 0.00 0.23 0.00 100 1019.9
20260508122329 59 55 1.0 7.0 0.00 0.23 0.00 100 1019.7
20260508121343 59 66 0.0 0.0 0.00 0.23 0.00 100 1019.5
20260508120331 59 67 0.0 4.0 0.00 0.23 0.00 100 1019.4
20260508115320 58 67 0.0 4.0 0.00 0.23 0.00 100 1019.4
20260508114332 58 68 1.0 4.0 0.00 0.23 0.00 100 1019.1
20260508113319 58 73 0.0 1.0 0.00 0.23 0.00 100 1018.9
20260508112332 58 23 0.0 5.0 0.00 0.23 0.00 100 1018.7
20260508111323 58 61 1.0 5.0 0.00 0.23 0.00 100 1018.6
20260508110403 57 4 0.0 4.0 0.00 0.23 0.00 100 1018.6
20260508105330 57 8 0.0 4.0 0.00 0.24 0.00 100 1018.2
20260508104319 57 4 1.0 2.0 0.00 0.24 0.00 100 1018.1
20260508103334 58 359 0.0 2.0 0.00 0.24 0.00 100 1018.0
20260508102321 58 359 0.0 0.0 0.00 0.24 0.00 100 1017.8